Volver al catálogo

CZ-4B DEB

ActivoLEO
NORAD 48625·DEBRIS·🇨🇳 China

Lanzado May 19, 2021 desde Jiuquan Satellite Launch Center

Loading…

Próximos Pases (próximas 24 horas)

TLE

EnvejeciendoSource: Space-Track

Época: Sep 12, 2026, 01:07 UTC

1 48625U 21043E   26255.04667523  .00001225  00000-0  91794-3 0  9991
2 48625  66.1682  45.6936 0046511 220.7010 139.0588 13.97643203270380

Sigue CZ-4B DEB en tiempo real con AllMySat

Download on the App Store